Nenana, AK

7:25 AM AKST on December 07, 2016 (GMT -0900)
Nenana Municipal

Weather History for PANN - October, 2012

Change the Weather History Date:

Wednesday, October 24, 2012

  Actual Average Record
Temperature  
Mean Temperature 18 °F -  
Max Temperature 46 °F 22 °F 63 °F (2016)
Min Temperature -11 °F 7 °F -11 °F (2012)
Degree Days  
Heating Degree Days 48    
Moisture  
Dew Point -4 °F    
Average Humidity 75    
Maximum Humidity 92    
Minimum Humidity 21    
Precipitation  
Precipitation 0.00 in - - ()
Sea Level Pressure  
Sea Level Pressure 30.65 in    
Wind  
Wind Speed 1 mph (ENE)    
Max Wind Speed 7 mph    
Max Gust Speed -    
Visibility 8 miles    
Events Fog    
Averages and records for this station are not official NWS values.
T = Trace of Precipitation, MM = Missing Value Source: NWS Daily Summary

Daily Weather History Graph

Daily Weather History Graph

Search for Another Location

Airport or City:

Trip Planner

Search our weather history database for the weather conditions in past years. The results will help you decide how hot, cold, wet, or windy it might be!

Date:

Astronomy

Oct. 24, 2012 Rise Set
Actual Time 9:18 AM AKDT 6:01 PM AKDT
Civil Twilight 8:26 AM AKDT 6:52 PM AKDT
Nautical Twilight 7:29 AM AKDT 7:49 PM AKDT
Astronomical Twilight 6:33 AM AKDT 8:45 PM AKDT
Moon 4:45 PM AKDT (10/24) 2:46 AM AKDT (10/24)
Length of Visible Light 10h 26m
Length of Day
8h 42m
Waxing Gibbous, 77% of the Moon is Illuminated
Oct 24
Waxing Gibbous
Oct 29
Full
Nov 6
Last Quarter
Nov 13
New
Nov 20
First Quarter

Hourly Weather History & Observations

Time (AKDT) Temp. Windchill Dew Point Humidity Pressure Visibility Wind Dir Wind Speed Gust Speed Precip Events Conditions
12:53 AM -8.0 °F - -15.0 °F 71% 30.68 in 10.0 mi Calm Calm - N/A   Clear
1:53 AM -9.0 °F - -14.1 °F 79% 30.68 in 10.0 mi Calm Calm - N/A   Clear
2:53 AM -9.0 °F - -16.1 °F 71% 30.69 in 10.0 mi Calm Calm - N/A   Clear
3:24 AM -11.2 °F - -16.6 °F 77% 30.64 in 10.0 mi Calm Calm - N/A   Scattered Clouds
3:39 AM -9.4 °F - -16.6 °F 71% 30.64 in 10.0 mi Calm Calm - N/A   Mostly Cloudy
3:53 AM -11.0 °F - -16.1 °F 78% 30.69 in 10.0 mi Calm Calm - N/A   Mostly Cloudy
4:53 AM -9.0 °F - -14.1 °F 79% 30.69 in 10.0 mi Calm Calm - N/A   Overcast
5:53 AM -7.1 °F - -11.0 °F 83% 30.69 in 3.0 mi Calm Calm - N/A   Overcast
5:56 AM -7.6 °F - -9.4 °F 92% 30.64 in 1.5 mi Calm Calm - N/A   Overcast
6:05 AM -7.6 °F - -9.4 °F 92% 30.64 in 0.5 mi Calm Calm - N/A Fog Light Freezing Fog
6:20 AM -7.6 °F -16.5 °F -9.4 °F 92% 30.65 in 1.5 mi ESE 3.5 mph - N/A   Overcast
6:25 AM -7.6 °F -16.5 °F -11.2 °F 84% 30.65 in 3.0 mi ESE 3.5 mph - N/A   Overcast
6:44 AM -7.6 °F - -11.2 °F 84% 30.65 in 10.0 mi Calm Calm - N/A   Scattered Clouds
6:53 AM -8.0 °F - -14.1 °F 75% 30.71 in 10.0 mi Calm Calm - N/A   Clear
7:53 AM -8.0 °F - -14.1 °F 75% 30.70 in 10.0 mi Calm Calm - N/A   Clear
8:53 AM -8.0 °F - -13.0 °F 79% 30.72 in 10.0 mi Calm Calm - N/A   Clear
9:53 AM -7.1 °F - -13.0 °F 75% 30.71 in 10.0 mi Calm Calm - N/A   Clear
10:53 AM -4.0 °F - -8.0 °F 83% 30.71 in 10.0 mi Calm Calm - N/A   Clear
11:53 AM -0.0 °F - -5.1 °F 79% 30.71 in 5.0 mi Calm Calm - N/A   Haze
12:53 PM 6.1 °F - 1.0 °F 80% 30.70 in 10.0 mi Calm Calm - N/A   Clear
1:53 PM 7.0 °F - 1.9 °F 80% 30.70 in 4.0 mi Calm Calm - N/A   Haze
2:53 PM 12.0 °F - 5.0 °F 73% 30.69 in 6.0 mi Calm Calm - N/A   Haze
3:53 PM 16.0 °F - 9.0 °F 74% 30.69 in 10.0 mi Calm Calm - N/A   Clear
4:53 PM 17.1 °F - 10.0 °F 74% 30.68 in 10.0 mi Calm Calm - N/A   Clear
5:53 PM 14.0 °F - 9.0 °F 80% 30.69 in 10.0 mi Calm Calm - N/A   Clear
6:53 PM 12.9 °F 6.9 °F 6.1 °F 74% 30.69 in 10.0 mi NE 3.5 mph - N/A   Clear
7:53 PM 10.9 °F 4.7 °F 6.1 °F 81% 30.68 in 10.0 mi NNE 3.5 mph - N/A   Clear
8:53 PM 8.1 °F 1.4 °F 3.9 °F 83% 30.67 in 10.0 mi NNE 3.5 mph - N/A   Clear
9:53 PM 12.0 °F 2.7 °F 3.9 °F 70% 30.67 in 10.0 mi ENE 5.8 mph - N/A   Clear
10:53 PM 16.0 °F 6.3 °F 7.0 °F 68% 30.67 in 10.0 mi NE 6.9 mph - N/A   Clear
11:53 PM 12.0 °F 2.7 °F 6.1 °F 77% 30.67 in 10.0 mi NE 5.8 mph - N/A   Clear